When you browse on this site, cookies collect data to enhance your experience and personalize the content and advertising you see.
Visit our Privacy Policy to learn more. By continuing to use the site, you agree to this use of cookies and data.
  • In United Kingdom
  • List of Countries
  • For 7 days
  • Water Temperature
  • Satellite Maps
  • Weather Map
  • Weather Widgets
  • user-avatar
    Login

    Hourly Weather Yeghegnadzor

    Today, 22 May, Wednesday

    Time Temperature Precipitation Wind Pressure Humidity
    00:00 +13°C° 0 mm 1 mps 655 mmHg 82%
    01:00 +13°C° 0 mm 1 mps 655 mmHg 82%
    02:00 +12°C° 0 mm 1 mps 655 mmHg 83%
    03:00 +12°C° 0 mm 1 mps 654 mmHg 81%
    04:00 +13°C° 0 mm 1 mps 655 mmHg 78%
    05:00 +13°C° 0 mm 1 mps 655 mmHg 74%
    06:00 +13°C° 0 mm 0 mps 656 mmHg 70%
    07:00 +16°C° 0 mm 1 mps 656 mmHg 67%
    08:00 +18°C° 0 mm 1 mps 656 mmHg 63%
    09:00 +18°C° 0 mm 2 mps 656 mmHg 61%
    10:00 +19°C° 0 mm 2 mps 655 mmHg 57%
    11:00 +20°C° 0 mm 2 mps 655 mmHg 53%
    12:00 +21°C° 0 mm 3 mps 655 mmHg 49%
    13:00 +22°C° 0.2 mm 3 mps 655 mmHg 46%
    14:00 +24°C° 0.2 mm 3 mps 655 mmHg 43%
    15:00 +24°C° 0.2 mm 3 mps 655 mmHg 41%
    16:00 +22°C° 0.5 mm 3 mps 655 mmHg 46%
    17:00 +21°C° 0.5 mm 3 mps 654 mmHg 52%
    18:00 +20°C° 0.5 mm 3 mps 654 mmHg 58%
    19:00 +18°C° 0.2 mm 3 mps 654 mmHg 65%
    20:00 +17°C° 0.2 mm 2 mps 654 mmHg 71%
    21:00 +15°C° 0.2 mm 1 mps 654 mmHg 78%
    22:00 +14°C° 0 mm 1 mps 653 mmHg 79%
    23:00 +13°C° 0 mm 0 mps 653 mmHg 81%

    Tomorrow, 23 May, Thursday

    Time Temperature Precipitation Wind Pressure Humidity
    00:00 +12°C° 0 mm 0 mps 653 mmHg 82%
    01:00 +12°C° 0 mm 0 mps 653 mmHg 83%
    02:00 +11°C° 0 mm 0 mps 652 mmHg 83%
    03:00 +11°C° 0 mm 0 mps 652 mmHg 84%
    04:00 +13°C° 0 mm 1 mps 652 mmHg 79%
    05:00 +14°C° 0 mm 1 mps 653 mmHg 74%
    06:00 +16°C° 0 mm 1 mps 653 mmHg 69%
    07:00 +17°C° 0 mm 2 mps 653 mmHg 62%
    08:00 +19°C° 0 mm 2 mps 653 mmHg 55%
    09:00 +20°C° 0 mm 2 mps 653 mmHg 49%
    10:00 +21°C° 0 mm 3 mps 653 mmHg 47%
    11:00 +22°C° 0 mm 4 mps 653 mmHg 45%
    12:00 +23°C° 0 mm 4 mps 653 mmHg 44%
    13:00 +23°C° 0.1 mm 4 mps 653 mmHg 43%
    14:00 +25°C° 0.1 mm 4 mps 653 mmHg 42%
    15:00 +25°C° 0.1 mm 5 mps 653 mmHg 41%
    16:00 +23°C° 0.3 mm 4 mps 652 mmHg 45%
    17:00 +22°C° 0.3 mm 4 mps 652 mmHg 49%
    18:00 +21°C° 0.3 mm 3 mps 652 mmHg 53%
    19:00 +19°C° 0.3 mm 2 mps 652 mmHg 60%
    20:00 +18°C° 0.3 mm 1 mps 652 mmHg 67%
    21:00 +15°C° 0.3 mm 1 mps 651 mmHg 75%
    22:00 +16°C° 0.4 mm 1 mps 652 mmHg 75%
    23:00 +16°C° 0.4 mm 1 mps 652 mmHg 75%

    Day after tomorrow, 24 May, Friday

    Time Temperature Precipitation Wind Pressure Humidity
    00:00 +15°C° 0.4 mm 0 mps 652 mmHg 75%
    01:00 +14°C° 0.2 mm 0 mps 652 mmHg 77%
    02:00 +14°C° 0.2 mm 0 mps 652 mmHg 80%
    03:00 +13°C° 0.2 mm 0 mps 652 mmHg 82%
    04:00 +15°C° 0.1 mm 1 mps 652 mmHg 79%
    05:00 +16°C° 0.1 mm 1 mps 653 mmHg 77%
    06:00 +16°C° 0.1 mm 1 mps 653 mmHg 75%
    07:00 +17°C° 0 mm 2 mps 653 mmHg 70%
    08:00 +19°C° 0 mm 2 mps 654 mmHg 65%
    09:00 +20°C° 0 mm 2 mps 654 mmHg 60%
    10:00 +21°C° 0.1 mm 3 mps 654 mmHg 55%
    11:00 +22°C° 0.1 mm 3 mps 654 mmHg 50%
    12:00 +25°C° 0.1 mm 3 mps 654 mmHg 45%
    13:00 +25°C° 0.2 mm 4 mps 654 mmHg 42%
    14:00 +26°C° 0.2 mm 4 mps 654 mmHg 40%
    15:00 +27°C° 0.2 mm 5 mps 654 mmHg 37%
    16:00 +26°C° 0.2 mm 4 mps 654 mmHg 40%
    17:00 +25°C° 0.2 mm 4 mps 654 mmHg 43%
    18:00 +24°C° 0.2 mm 3 mps 653 mmHg 46%
    19:00 +21°C° 0.3 mm 2 mps 654 mmHg 52%
    20:00 +19°C° 0.3 mm 2 mps 654 mmHg 59%
    21:00 +18°C° 0.3 mm 1 mps 654 mmHg 66%
    22:00 +18°C° 0.4 mm 1 mps 654 mmHg 65%
    23:00 +18°C° 0.4 mm 1 mps 654 mmHg 65%

    25 May, Saturday

    Time Temperature Precipitation Wind Pressure Humidity
    00:00 +17°C° 0.4 mm 2 mps 655 mmHg 65%
    01:00 +16°C° 0.1 mm 2 mps 654 mmHg 65%
    02:00 +16°C° 0.1 mm 2 mps 654 mmHg 66%
    03:00 +16°C° 0.1 mm 2 mps 654 mmHg 66%
    04:00 +17°C° 0 mm 2 mps 655 mmHg 64%
    05:00 +18°C° 0 mm 2 mps 655 mmHg 62%
    06:00 +18°C° 0 mm 2 mps 655 mmHg 60%
    07:00 +20°C° 0 mm 2 mps 656 mmHg 53%
    08:00 +22°C° 0 mm 3 mps 656 mmHg 46%
    09:00 +25°C° 0 mm 3 mps 656 mmHg 39%
    10:00 +27°C° 0 mm 4 mps 656 mmHg 36%
    11:00 +28°C° 0 mm 4 mps 656 mmHg 32%
    12:00 +29°C° 0 mm 4 mps 656 mmHg 29%
    13:00 +30°C° 0 mm 5 mps 655 mmHg 27%
    14:00 +30°C° 0 mm 5 mps 655 mmHg 26%
    15:00 +32°C° 0 mm 6 mps 655 mmHg 24%
    16:00 +30°C° 0.1 mm 5 mps 655 mmHg 27%
    17:00 +28°C° 0.1 mm 4 mps 654 mmHg 29%
    18:00 +27°C° 0.1 mm 3 mps 654 mmHg 32%
    19:00 +24°C° 0.1 mm 3 mps 653 mmHg 38%
    20:00 +21°C° 0.1 mm 3 mps 653 mmHg 43%
    21:00 +19°C° 0.1 mm 2 mps 653 mmHg 49%
    22:00 +18°C° 0 mm 2 mps 653 mmHg 49%
    23:00 +18°C° 0 mm 3 mps 653 mmHg 48%

    26 May, Sunday

    Time Temperature Precipitation Wind Pressure Humidity
    00:00 +18°C° 0 mm 3 mps 653 mmHg 47%
    01:00 +18°C° 0 mm 3 mps 653 mmHg 47%
    02:00 +17°C° 0 mm 3 mps 652 mmHg 46%
    03:00 +17°C° 0 mm 3 mps 652 mmHg 46%
    04:00 +18°C° 0 mm 3 mps 653 mmHg 47%
    05:00 +19°C° 0 mm 3 mps 653 mmHg 48%
    06:00 +19°C° 0 mm 3 mps 653 mmHg 49%
    07:00 +22°C° 0 mm 3 mps 653 mmHg 43%
    08:00 +25°C° 0 mm 4 mps 654 mmHg 37%
    09:00 +27°C° 0 mm 4 mps 654 mmHg 31%
    10:00 +28°C° 0 mm 5 mps 654 mmHg 29%
    11:00 +29°C° 0 mm 6 mps 654 mmHg 26%
    12:00 +30°C° 0 mm 6 mps 654 mmHg 24%
    13:00 +30°C° 0 mm 6 mps 654 mmHg 24%
    14:00 +30°C° 0 mm 7 mps 654 mmHg 24%
    15:00 +30°C° 0 mm 7 mps 653 mmHg 23%
    16:00 +29°C° 0.1 mm 6 mps 653 mmHg 26%
    17:00 +28°C° 0.1 mm 4 mps 653 mmHg 28%
    18:00 +27°C° 0.1 mm 3 mps 653 mmHg 31%
    19:00 +25°C° 0.2 mm 3 mps 653 mmHg 32%
    20:00 +21°C° 0.2 mm 2 mps 653 mmHg 34%
    21:00 +19°C° 0.2 mm 2 mps 653 mmHg 35%
    22:00 +18°C° 0 mm 2 mps 653 mmHg 35%
    23:00 +18°C° 0 mm 2 mps 653 mmHg 34%

    27 May, Monday

    Time Temperature Precipitation Wind Pressure Humidity
    00:00 +18°C° 0 mm 2 mps 653 mmHg 34%
    01:00 +17°C° 0 mm 2 mps 653 mmHg 37%
    02:00 +17°C° 0 mm 2 mps 653 mmHg 39%
    03:00 +16°C° 0 mm 2 mps 653 mmHg 42%
    04:00 +17°C° 0 mm 2 mps 653 mmHg 42%
    05:00 +18°C° 0 mm 2 mps 654 mmHg 42%
    06:00 +18°C° 0 mm 2 mps 655 mmHg 43%
    07:00 +20°C° 0 mm 2 mps 655 mmHg 38%
    08:00 +23°C° 0 mm 2 mps 655 mmHg 32%
    09:00 +25°C° 0 mm 2 mps 656 mmHg 27%
    10:00 +26°C° 0 mm 3 mps 656 mmHg 26%
    11:00 +27°C° 0 mm 3 mps 656 mmHg 24%
    12:00 +28°C° 0 mm 4 mps 656 mmHg 22%
    13:00 +28°C° 0 mm 3 mps 656 mmHg 23%
    14:00 +28°C° 0 mm 3 mps 656 mmHg 23%
    15:00 +29°C° 0 mm 3 mps 655 mmHg 23%
    16:00 +28°C° 0 mm 3 mps 656 mmHg 27%
    17:00 +27°C° 0 mm 3 mps 656 mmHg 32%
    18:00 +26°C° 0 mm 3 mps 656 mmHg 37%
    19:00 +24°C° 0.3 mm 3 mps 656 mmHg 43%
    20:00 +21°C° 0.3 mm 3 mps 655 mmHg 50%
    21:00 +19°C° 0.3 mm 3 mps 655 mmHg 56%
    22:00 +18°C° 0.2 mm 3 mps 656 mmHg 58%
    23:00 +18°C° 0.2 mm 3 mps 656 mmHg 59%
    Show more